Location: Toronto
(43.6667°N, 79.4167°W)
Time: 11:09:09
(UTC-05:00)

N. Korean satellite - Visible Passes

Search period start: 08 December 2022 00:00
Search period end: 18 December 2022 00:00
Orbit: 420 x 452 km, 97.3° (Epoch: 08 December)

Date Brightness Start Highest point End Pass type
(mag) Time Alt. Az. Time Alt. Az. Time Alt. Az.
08 Dec 8.0 05:13:00 10° NNE 05:16:09 35° E 05:19:14 10° SSE visible
08 Dec 8.1 06:46:30 10° NNW 06:48:19 14° WNW 06:50:08 10° W visible
08 Dec 8.4 17:15:34 10° SSW 17:18:41 34° W 17:21:50 10° NNW visible
09 Dec 9.8 04:35:38 10° ENE 04:36:48 11° E 04:37:57 10° ESE visible
09 Dec 6.7 06:06:20 10° N 06:09:31 40° WNW 06:12:39 10° SW visible
10 Dec 7.0 05:27:07 10° NNE 05:30:27 55° E 05:33:42 10° S visible
10 Dec 9.2 17:30:13 10° SSW 17:32:57 23° W 17:35:45 10° NW visible
11 Dec 9.3 04:48:49 10° NE 04:51:05 17° E 04:53:20 10° SE visible
11 Dec 7.3 06:20:44 10° NNW 06:23:36 26° WNW 06:26:25 10° SW visible
12 Dec 6.2 05:41:08 10° NNE 05:44:30 89° ESE 05:47:48 10° SSW visible
12 Dec 9.6 17:44:56 10° SW 17:47:03 16° W 17:49:12 10° NW visible
13 Dec 8.7 05:02:18 10° NE 05:05:07 25° E 05:07:54 10° SSE visible
13 Dec 7.8 06:35:04 10° NNW 06:37:26 18° WNW 06:39:47 10° WSW visible
14 Dec 6.3 05:58:16 57° WNW 05:58:19 57° WNW 06:01:34 10° SSW visible
14 Dec 10.1 18:00:14 10° WSW 18:00:59 11° W 18:01:44 10° WNW visible
15 Dec 7.8 05:19:10 36° ESE 05:19:10 36° ESE 05:22:00 10° SSE visible
15 Dec 8.5 06:52:33 10° W 06:52:33 10° W 06:52:36 10° W visible
15 Dec 8.5 17:18:14 10° SSW 17:21:19 32° W 17:24:25 10° NNW visible
16 Dec 9.8 04:39:50 11° ESE 04:39:50 11° ESE 04:40:32 10° ESE visible
16 Dec 7.5 06:13:13 25° WSW 06:13:13 25° WSW 06:14:58 10° SW visible
17 Dec 7.7 05:33:45 32° SSE 05:33:45 32° SSE 05:35:44 10° S visible
17 Dec 9.3 17:32:11 10° SSW 17:34:52 22° W 17:37:35 10° NW visible
